Simultaneous Nadir Overpasses (SNOs) Predictions

Prediction of SNOs between AQUA and METOP-C Satellite Orbit:

Table of predicted SNOs for the next 14.0 days since TLE Epoch: 12/3/2018
Index Date (AQUA) Time (AQUA) Lat,Lon (AQUA) SZA (AQUA ) Date (METOP-C) Time (METOP-C) Lat,Lon (METOP-C) SZA (METOP-C ) Distance(km) Time Diff (sec)
1 12/03/2018 07:34:52 -73.80,-119.44 84.18 12/03/2018 07:33:44 -73.78,-119.45 84.19 2.16 68
2 12/03/2018 08:24:20 73.84, 48.11 95.88 12/03/2018 08:24:23 73.86, 48.07 95.90 2.63 3
3 12/03/2018 09:13:49 -74.00,-144.62 83.96 12/03/2018 09:15:01 -74.00,-144.24 83.96 11.58 72
4 12/06/2018 03:09:07 -73.79, -53.00 83.81 12/06/2018 03:08:07 -73.81, -52.96 83.78 2.48 60
5 12/06/2018 03:58:36 73.88, 114.44 96.30 12/06/2018 03:58:46 73.89, 114.56 96.30 3.65 10
6 12/06/2018 04:48:10 -74.30, -78.88 83.26 12/06/2018 04:49:19 -74.28, -77.12 83.32 53.03 69
7 12/08/2018 22:43:21 -73.80, 13.44 83.49 12/08/2018 22:42:30 -73.80, 13.42 83.48 0.59 51
8 12/08/2018 23:32:50 73.88,-179.12 96.61 12/08/2018 23:33:09 73.87,-179.08 96.60 2.27 19
9 12/09/2018 00:22:30 -74.61, -13.19 82.62 12/09/2018 00:23:35 -74.61, -9.86 82.68 98.42 65
10 12/11/2018 18:17:36 -73.80, 79.86 83.22 12/11/2018 18:16:54 -73.78, 79.80 83.23 2.70 42
11 12/11/2018 19:07:05 73.89,-112.69 96.88 12/11/2018 19:07:32 73.90,-112.59 96.88 3.25 27
12 12/14/2018 13:51:51 -73.81, 146.28 83.01 12/14/2018 13:51:17 -73.82, 146.30 83.00 1.03 34
13 12/14/2018 14:41:20 73.90, -46.28 97.08 12/14/2018 14:41:56 73.88, -46.23 97.06 2.92 36




NCC Satellite Simultaneous Nadir Overpasses (SNOs) Prediction Service
